Location: ČR
(50.0000°N, 15.0000°E)
Time: 12:35:58
(UTC+00:00)

Vanguard 2 - All Passes

Search period start: 25 October 2021 00:00
Search period end: 04 November 2021 00:00
Orbit: 553 x 2936 km, 32.9° (Epoch: 24 October)

Date Brightness Start Highest point End Pass type
(mag) Time Alt. Az. Time Alt. Az. Time Alt. Az.
25 Oct - 01:53:46 10° SW 02:01:58 25° S 02:07:43 10° SE visible
25 Oct - 04:05:13 10° WSW 04:09:28 15° SSW 04:12:51 10° S visible
25 Oct - 21:54:49 10° S 22:01:50 15° SSE 22:07:46 10° ESE night (unlit)
26 Oct - 00:00:54 10° SW 00:10:54 25° S 00:18:03 10° ESE visible
26 Oct - 02:11:05 10° WSW 02:19:20 25° S 02:25:06 10° SE visible
26 Oct - 04:23:32 10° SW 04:26:36 13° SSW 04:29:14 10° S visible
26 Oct - 22:09:47 10° SSW 22:19:14 19° SSE 22:26:45 10° ESE night (unlit)
27 Oct - 00:17:41 10° SW 00:28:21 28° S 00:35:47 10° ESE visible
27 Oct - 02:28:35 10° WSW 02:36:40 24° SSW 02:42:21 10° SE visible
27 Oct - 20:25:01 10° SSE 20:27:25 10° SE 20:29:44 10° SE night (unlit)
27 Oct - 22:25:35 10° SSW 22:36:39 24° SSE 22:45:05 10° ESE night (unlit)
28 Oct - 00:34:44 10° SW 00:45:47 30° S 00:53:21 10° ESE visible
28 Oct - 02:46:14 10° WSW 02:53:56 23° SSW 02:59:25 10° SSE visible
28 Oct - 20:36:47 10° S 20:44:41 15° SSE 20:51:38 10° ESE visible
28 Oct - 22:41:54 10° SW 22:54:04 28° SSE 23:03:04 10° ESE night (unlit)
29 Oct - 00:51:59 10° WSW 01:03:11 31° S 01:10:48 10° SE visible
29 Oct - 03:04:05 10° WSW 03:11:06 20° SSW 03:16:17 10° SSE visible
29 Oct - 20:51:27 10° S 21:01:58 20° SSE 21:10:50 10° ESE visible
29 Oct - 22:58:35 10° SW 23:11:29 31° S 23:20:50 10° ESE night (unlit)
30 Oct - 01:09:23 10° WSW 01:20:33 31° S 01:28:07 10° SE visible
30 Oct - 03:22:12 10° WSW 03:28:11 17° SSW 03:32:50 10° S visible
30 Oct - 21:07:03 10° SSW 21:19:16 25° SSE 21:29:17 10° ESE visible
30 Oct - 23:15:32 10° SW 23:28:55 34° S 23:38:27 10° ESE night (unlit)
31 Oct - 01:26:56 10° WSW 01:37:51 30° SSW 01:45:19 10° SE visible
31 Oct - 03:40:49 10° WSW 03:45:11 14° SW 03:48:49 10° SSW visible
31 Oct - 19:19:44 10° SSE 19:27:11 14° SE 19:34:11 10° ESE visible
31 Oct - 21:23:12 10° SSW 21:36:37 29° SSE 21:47:22 10° ESE visible
31 Oct - 23:32:41 10° WSW 23:46:20 36° S 23:55:58 10° ESE visible
01 Nov - 01:44:37 10° WSW 01:55:04 27° SSW 02:02:22 10° SSE visible
01 Nov - 19:33:53 10° S 19:44:20 19° SE 19:53:52 10° ESE visible
01 Nov - 21:39:43 10° SW 21:53:59 33° SSE 22:05:13 10° ESE visible
01 Nov - 23:50:00 10° WSW 00:03:43 36° S 00:13:21 10° SE visible
02 Nov - 02:02:28 10° WSW 02:12:13 24° SSW 02:19:13 10° SSE visible
02 Nov - 19:49:12 10° SSW 20:01:30 24° SSE 20:12:35 10° ESE visible
02 Nov - 21:56:33 10° SW 22:11:23 36° S 22:22:54 10° ESE visible
03 Nov - 00:07:27 10° WSW 00:21:04 36° SSW 00:30:39 10° SE visible
03 Nov - 02:20:32 10° WSW 02:29:17 21° SW 02:35:47 10° S visible
03 Nov - 18:04:30 10° SSE 18:09:36 12° SE 18:14:41 10° ESE visible
03 Nov - 20:05:08 10° SSW 20:18:43 28° SSE 20:30:49 10° ESE visible
03 Nov - 22:13:36 10° SW 22:28:46 38° S 22:40:28 10° ESE visible
